contact:dominique.lefevre@mio.osupytheas.fr, maurice.libes@osupytheas.fr, didier.mallarino@osupytheas.fr
Project:EMSO http://www.emso-fr.org/EMSO-France
Depth: 2436.0 m
Title:EMSO Ligure Ouest : Data MII capteur CSTAR
DateTime,Latitude,Longitude,Instrument_Serial,Reference_Counts,Signal_Counts,Corrected_Signal_raw_counts,Calculated_Beam_c_inverse_meters,Internal_thermistor_counts
DateTime,Latitude,Longitude,Instrument_Serial,Reference_Counts,Signal_Counts,Corrected_Signal_raw_counts,Calculated_Beam_c_inverse_meters,Internal_thermistor_counts
2023-05-02T00:01:02,42.805,6.029,CST-1368DR,4310,4717,11620,01.182,551
2023-05-02T00:04:03,42.805,6.029,CST-1368DR,4310,4726,11643,01.174,551
2023-05-02T00:07:05,42.805,6.029,CST-1368DR,4310,4718,11624,01.181,551
2023-05-02T00:10:06,42.805,6.029,CST-1368DR,4310,4717,11621,01.182,551
2023-05-02T00:13:08,42.805,6.029,CST-1368DR,4310,4718,11623,01.181,552
2023-05-02T00:16:10,42.805,6.029,CST-1368DR,4310,4717,11620,01.182,552
2023-05-02T00:19:11,42.805,6.029,CST-1368DR,4310,4714,11612,01.185,552
2023-05-02T00:22:13,42.805,6.029,CST-1368DR,4310,4717,11620,01.182,552
2023-05-02T00:25:14,42.805,6.029,CST-1368DR,4310,4718,11624,01.181,551
2023-05-02T00:28:16,42.805,6.029,CST-1368DR,4310,4719,11625,01.181,551
2023-05-02T00:31:17,42.805,6.029,CST-1368DR,4310,4717,11621,01.182,552
2023-05-02T00:34:19,42.805,6.029,CST-1368DR,4310,4721,11629,01.179,552
2023-05-02T00:37:21,42.805,6.029,CST-1368DR,4310,4719,11624,01.181,551
2023-05-02T00:40:22,42.805,6.029,CST-1368DR,4310,4719,11626,01.180,551
2023-05-02T00:43:24,42.805,6.029,CST-1368DR,4310,4715,11616,01.184,551
2023-05-02T00:46:25,42.805,6.029,CST-1368DR,4310,4716,11619,01.183,552
2023-05-02T00:49:27,42.805,6.029,CST-1368DR,4310,4718,11622,01.182,552
2023-05-02T00:52:28,42.805,6.029,CST-1368DR,4310,4717,11620,01.182,552
2023-05-02T00:55:30,42.805,6.029,CST-1368DR,4310,4718,11622,01.182,552
2023-05-02T00:58:32,42.805,6.029,CST-1368DR,4310,4720,11628,01.180,551
2023-05-02T01:01:33,42.805,6.029,CST-1368DR,4310,4720,11628,01.180,552
2023-05-02T01:04:35,42.805,6.029,CST-1368DR,4310,4717,11620,01.182,552
2023-05-02T01:07:36,42.805,6.029,CST-1368DR,4310,4717,11620,01.182,552
2023-05-02T01:10:38,42.805,6.029,CST-1368DR,4310,4721,11629,01.179,551
2023-05-02T01:13:39,42.805,6.029,CST-1368DR,4310,4719,11626,01.180,552
2023-05-02T01:16:41,42.805,6.029,CST-1368DR,4310,4718,11623,01.181,551
2023-05-02T01:19:43,42.805,6.029,CST-1368DR,4310,4719,11625,01.181,552
2023-05-02T01:22:44,42.805,6.029,CST-1368DR,4310,4720,11627,01.180,552
2023-05-02T01:25:46,42.805,6.029,CST-1368DR,4310,4717,11621,01.182,552
2023-05-02T01:28:47,42.805,6.029,CST-1368DR,4310,4719,11625,01.181,552
2023-05-02T01:31:49,42.805,6.029,CST-1368DR,4310,4719,11626,01.180,551
2023-05-02T01:34:51,42.805,6.029,CST-1368DR,4310,4720,11628,01.180,551
2023-05-02T01:37:52,42.805,6.029,CST-1368DR,4310,4719,11625,01.181,552
2023-05-02T01:40:54,42.805,6.029,CST-1368DR,4310,4720,11628,01.180,552
2023-05-02T01:43:55,42.805,6.029,CST-1368DR,4310,4718,11623,01.181,551
2023-05-02T01:46:57,42.805,6.029,CST-1368DR,4310,4719,11625,01.181,552
2023-05-02T01:49:58,42.805,6.029,CST-1368DR,4310,4720,11627,01.180,551
2023-05-02T01:53:00,42.805,6.029,CST-1368DR,4310,4717,11620,01.182,551
2023-05-02T01:56:02,42.805,6.029,CST-1368DR,4310,4719,11625,01.181,552
2023-05-02T01:59:03,42.805,6.029,CST-1368DR,4310,4717,11620,01.182,552
2023-05-02T02:02:05,42.805,6.029,CST-1368DR,4310,4718,11622,01.182,552
2023-05-02T02:05:06,42.805,6.029,CST-1368DR,4310,4719,11625,01.181,551
2023-05-02T02:08:08,42.805,6.029,CST-1368DR,4310,4717,11620,01.182,552
2023-05-02T02:11:09,42.805,6.029,CST-1368DR,4310,4717,11620,01.182,551
2023-05-02T02:14:11,42.805,6.029,CST-1368DR,4310,4719,11625,01.181,551
2023-05-02T02:17:13,42.805,6.029,CST-1368DR,4310,4717,11619,01.183,551
2023-05-02T02:20:14,42.805,6.029,CST-1368DR,4310,4717,11621,01.182,551
2023-05-02T02:23:16,42.805,6.029,CST-1368DR,4310,4717,11619,01.183,552
2023-05-02T02:26:17,42.805,6.029,CST-1368DR,4310,4722,11633,01.178,552
2023-05-02T02:29:19,42.805,6.029,CST-1368DR,4309,4720,11629,01.179,552
2023-05-02T02:32:21,42.805,6.029,CST-1368DR,4309,4721,11632,01.178,552
2023-05-02T02:35:22,42.805,6.029,CST-1368DR,4310,4716,11619,01.183,551
2023-05-02T02:38:24,42.805,6.029,CST-1368DR,4310,4720,11628,01.180,552
2023-05-02T02:41:25,42.805,6.029,CST-1368DR,4310,4722,11632,01.178,551
2023-05-02T02:44:27,42.805,6.029,CST-1368DR,4310,4722,11632,01.178,552
2023-05-02T02:47:28,42.805,6.029,CST-1368DR,4309,4723,11637,01.176,551
2023-05-02T02:50:30,42.805,6.029,CST-1368DR,4310,4720,11628,01.180,551
2023-05-02T02:53:32,42.805,6.029,CST-1368DR,4310,4721,11629,01.179,552
2023-05-02T02:56:33,42.805,6.029,CST-1368DR,4310,4719,11625,01.181,552
2023-05-02T02:59:35,42.805,6.029,CST-1368DR,4309,4719,11627,01.180,551
2023-05-02T03:02:36,42.805,6.029,CST-1368DR,4310,4727,11645,01.174,552
2023-05-02T03:05:38,42.805,6.029,CST-1368DR,4310,4720,11627,01.180,552
2023-05-02T03:08:39,42.805,6.029,CST-1368DR,4310,4719,11624,01.181,552
2023-05-02T03:11:41,42.805,6.029,CST-1368DR,4310,4718,11622,01.182,551
2023-05-02T03:14:43,42.805,6.029,CST-1368DR,4310,4721,11630,01.179,551
2023-05-02T03:17:44,42.805,6.029,CST-1368DR,4310,4719,11625,01.181,552
2023-05-02T03:20:46,42.805,6.029,CST-1368DR,4310,4719,11625,01.181,551
2023-05-02T03:23:47,42.805,6.029,CST-1368DR,4310,4720,11627,01.180,552
2023-05-02T03:26:49,42.805,6.029,CST-1368DR,4310,4721,11629,01.179,552
2023-05-02T03:29:51,42.805,6.029,CST-1368DR,4310,4723,11635,01.177,552
2023-05-02T03:32:52,42.805,6.029,CST-1368DR,4310,4721,11630,01.179,551
2023-05-02T03:35:54,42.805,6.029,CST-1368DR,4310,4721,11629,01.179,551
2023-05-02T03:38:55,42.805,6.029,CST-1368DR,4310,4722,11632,01.178,551
2023-05-02T03:41:57,42.805,6.029,CST-1368DR,4310,4718,11623,01.181,552
2023-05-02T03:44:58,42.805,6.029,CST-1368DR,4310,4718,11623,01.181,551
2023-05-02T03:48:00,42.805,6.029,CST-1368DR,4310,4720,11627,01.180,551
2023-05-02T03:51:02,42.805,6.029,CST-1368DR,4310,4720,11628,01.180,551
2023-05-02T03:54:03,42.805,6.029,CST-1368DR,4310,4721,11629,01.179,551
2023-05-02T03:57:05,42.805,6.029,CST-1368DR,4310,4721,11630,01.179,551
2023-05-02T04:00:06,42.805,6.029,CST-1368DR,4310,4719,11625,01.181,551
2023-05-02T04:03:08,42.805,6.029,CST-1368DR,4310,4720,11627,01.180,552
2023-05-02T04:06:09,42.805,6.029,CST-1368DR,4310,4719,11626,01.180,552
2023-05-02T04:09:11,42.805,6.029,CST-1368DR,4310,4719,11624,01.181,552
2023-05-02T04:12:13,42.805,6.029,CST-1368DR,4310,4717,11620,01.182,552
2023-05-02T04:15:14,42.805,6.029,CST-1368DR,4310,4720,11627,01.180,552
2023-05-02T04:18:16,42.805,6.029,CST-1368DR,4310,4717,11621,01.182,551
2023-05-02T04:21:17,42.805,6.029,CST-1368DR,4310,4716,11617,01.183,551
2023-05-02T04:24:19,42.805,6.029,CST-1368DR,4309,4715,11617,01.183,552
2023-05-02T04:27:21,42.805,6.029,CST-1368DR,4310,4719,11626,01.180,551
2023-05-02T04:30:23,42.805,6.029,CST-1368DR,4310,4718,11623,01.181,551
2023-05-02T04:33:25,42.805,6.029,CST-1368DR,4310,4721,11629,01.179,552
2023-05-02T04:36:26,42.805,6.029,CST-1368DR,4310,4718,11622,01.182,551
2023-05-02T04:39:28,42.805,6.029,CST-1368DR,4310,4717,11619,01.183,551
2023-05-02T04:42:29,42.805,6.029,CST-1368DR,4310,4719,11625,01.181,552
2023-05-02T04:45:31,42.805,6.029,CST-1368DR,4310,4716,11619,01.183,551
2023-05-02T04:48:33,42.805,6.029,CST-1368DR,4310,4718,11623,01.181,552
2023-05-02T04:51:34,42.805,6.029,CST-1368DR,4310,4720,11628,01.180,552
2023-05-02T04:54:36,42.805,6.029,CST-1368DR,4310,4718,11624,01.181,552
2023-05-02T04:57:37,42.805,6.029,CST-1368DR,4310,4719,11625,01.181,551
2023-05-02T05:00:39,42.805,6.029,CST-1368DR,4310,4719,11625,01.181,551
2023-05-02T05:03:41,42.805,6.029,CST-1368DR,4310,4720,11628,01.180,552
2023-05-02T05:06:42,42.805,6.029,CST-1368DR,4310,4716,11619,01.183,552
2023-05-02T05:09:44,42.805,6.029,CST-1368DR,4310,4722,11633,01.178,552
2023-05-02T05:12:45,42.805,6.029,CST-1368DR,4309,4719,11628,01.180,552
2023-05-02T05:15:47,42.805,6.029,CST-1368DR,4310,4721,11629,01.179,552
2023-05-02T05:18:48,42.805,6.029,CST-1368DR,4310,4719,11625,01.181,552
2023-05-02T05:21:50,42.805,6.029,CST-1368DR,4310,4718,11623,01.181,552
2023-05-02T05:24:52,42.805,6.029,CST-1368DR,4310,4720,11627,01.180,551
2023-05-02T05:27:53,42.805,6.029,CST-1368DR,4310,4723,11634,01.177,552
2023-05-02T05:30:55,42.805,6.029,CST-1368DR,4310,4723,11634,01.177,551
2023-05-02T05:33:56,42.805,6.029,CST-1368DR,4310,4718,11623,01.181,552
2023-05-02T05:36:58,42.805,6.029,CST-1368DR,4310,4721,11630,01.179,552
2023-05-02T05:39:59,42.805,6.029,CST-1368DR,4310,4720,11628,01.180,552
2023-05-02T05:43:01,42.805,6.029,CST-1368DR,4310,4720,11628,01.180,552
2023-05-02T05:46:03,42.805,6.029,CST-1368DR,4310,4722,11632,01.178,552
2023-05-02T05:49:04,42.805,6.029,CST-1368DR,4310,4719,11626,01.180,551
2023-05-02T05:52:06,42.805,6.029,CST-1368DR,4310,4719,11625,01.181,551
2023-05-02T05:55:07,42.805,6.029,CST-1368DR,4310,4719,11624,01.181,551
2023-05-02T05:58:09,42.805,6.029,CST-1368DR,4310,4718,11622,01.182,551
2023-05-02T06:01:11,42.805,6.029,CST-1368DR,4310,4719,11625,01.181,551
2023-05-02T06:04:12,42.805,6.029,CST-1368DR,4310,4717,11620,01.182,552
2023-05-02T06:07:14,42.805,6.029,CST-1368DR,4310,4712,11607,01.187,552
2023-05-02T06:10:15,42.805,6.029,CST-1368DR,4310,4716,11617,01.183,552
2023-05-02T06:13:17,42.805,6.029,CST-1368DR,4309,4719,11629,01.179,552
2023-05-02T06:16:18,42.805,6.029,CST-1368DR,4309,4719,11627,01.180,551
2023-05-02T06:19:20,42.805,6.029,CST-1368DR,4310,4721,11631,01.178,552
2023-05-02T06:22:22,42.805,6.029,CST-1368DR,4309,4717,11622,01.182,551
2023-05-02T06:25:23,42.805,6.029,CST-1368DR,4310,4720,11627,01.180,552
2023-05-02T06:28:25,42.805,6.029,CST-1368DR,4309,4719,11627,01.180,551
2023-05-02T06:31:26,42.805,6.029,CST-1368DR,4310,4719,11625,01.181,551
2023-05-02T06:34:28,42.805,6.029,CST-1368DR,4310,4719,11626,01.180,552
2023-05-02T06:37:29,42.805,6.029,CST-1368DR,4310,4719,11625,01.181,552
2023-05-02T06:40:31,42.805,6.029,CST-1368DR,4310,4718,11624,01.181,552
2023-05-02T06:43:33,42.805,6.029,CST-1368DR,4310,4718,11624,01.181,551
2023-05-02T06:46:34,42.805,6.029,CST-1368DR,4310,4719,11624,01.181,552
2023-05-02T06:49:36,42.805,6.029,CST-1368DR,4310,4719,11625,01.181,551
2023-05-02T06:52:37,42.805,6.029,CST-1368DR,4309,4720,11630,01.179,552
2023-05-02T06:55:39,42.805,6.029,CST-1368DR,4310,4721,11631,01.178,552
2023-05-02T06:58:41,42.805,6.029,CST-1368DR,4310,4720,11627,01.180,552
2023-05-02T07:01:42,42.805,6.029,CST-1368DR,4310,4721,11630,01.179,552
2023-05-02T07:04:44,42.805,6.029,CST-1368DR,4310,4720,11628,01.180,551
2023-05-02T07:07:45,42.805,6.029,CST-1368DR,4309,4720,11630,01.179,551
2023-05-02T07:10:47,42.805,6.029,CST-1368DR,4310,4718,11623,01.181,552
2023-05-02T07:13:48,42.805,6.029,CST-1368DR,4310,4718,11624,01.181,551
2023-05-02T07:16:50,42.805,6.029,CST-1368DR,4310,4719,11626,01.180,551
2023-05-02T07:19:52,42.805,6.029,CST-1368DR,4310,4722,11632,01.178,551
2023-05-02T07:22:53,42.805,6.029,CST-1368DR,4310,4724,11638,01.176,551
2023-05-02T07:25:55,42.805,6.029,CST-1368DR,4310,4720,11628,01.180,552
2023-05-02T07:28:56,42.805,6.029,CST-1368DR,4309,4719,11629,01.179,552
2023-05-02T07:31:58,42.805,6.029,CST-1368DR,4309,4719,11627,01.180,552
2023-05-02T07:35:00,42.805,6.029,CST-1368DR,4309,4720,11630,01.179,551
2023-05-02T07:38:01,42.805,6.029,CST-1368DR,4310,4721,11629,01.179,552
2023-05-02T07:41:03,42.805,6.029,CST-1368DR,4310,4721,11630,01.179,551
2023-05-02T07:44:04,42.805,6.029,CST-1368DR,4310,4721,11630,01.179,552
2023-05-02T07:47:06,42.805,6.029,CST-1368DR,4309,4716,11621,01.182,551
2023-05-02T07:50:07,42.805,6.029,CST-1368DR,4310,4721,11630,01.179,551
2023-05-02T07:53:09,42.805,6.029,CST-1368DR,4310,4719,11625,01.181,552
2023-05-02T07:56:11,42.805,6.029,CST-1368DR,4309,4720,11631,01.178,552
2023-05-02T07:59:12,42.805,6.029,CST-1368DR,4309,4718,11626,01.180,552
2023-05-02T08:02:14,42.805,6.029,CST-1368DR,4309,4718,11625,01.181,552
2023-05-02T08:05:15,42.805,6.029,CST-1368DR,4309,4716,11621,01.182,551
2023-05-02T08:08:17,42.805,6.029,CST-1368DR,4309,4716,11621,01.182,552
2023-05-02T08:11:18,42.805,6.029,CST-1368DR,4310,4719,11625,01.181,552
2023-05-02T08:14:20,42.805,6.029,CST-1368DR,4309,4720,11630,01.179,552
2023-05-02T08:17:22,42.805,6.029,CST-1368DR,4310,4717,11619,01.183,552
2023-05-02T08:20:23,42.805,6.029,CST-1368DR,4310,4716,11618,01.183,552
2023-05-02T08:23:25,42.805,6.029,CST-1368DR,4310,4717,11620,01.182,552
2023-05-02T08:26:26,42.805,6.029,CST-1368DR,4309,4717,11623,01.181,552
2023-05-02T08:29:28,42.805,6.029,CST-1368DR,4310,4716,11619,01.183,551
2023-05-02T08:32:29,42.805,6.029,CST-1368DR,4309,4716,11620,01.182,552
2023-05-02T08:35:31,42.805,6.029,CST-1368DR,4309,4717,11624,01.181,551
2023-05-02T08:38:33,42.805,6.029,CST-1368DR,4309,4715,11619,01.183,552
2023-05-02T08:41:34,42.805,6.029,CST-1368DR,4309,4717,11624,01.181,552
2023-05-02T08:44:36,42.805,6.029,CST-1368DR,4310,4719,11625,01.181,551
2023-05-02T08:47:37,42.805,6.029,CST-1368DR,4309,4713,11613,01.185,551
2023-05-02T08:50:39,42.805,6.029,CST-1368DR,4309,4716,11621,01.182,551
2023-05-02T08:53:41,42.805,6.029,CST-1368DR,4309,4716,11619,01.183,552
2023-05-02T08:56:42,42.805,6.029,CST-1368DR,4309,4716,11619,01.183,552
2023-05-02T08:59:44,42.805,6.029,CST-1368DR,4309,4717,11622,01.182,552
2023-05-02T09:02:45,42.805,6.029,CST-1368DR,4309,4715,11618,01.183,552
2023-05-02T09:05:47,42.805,6.029,CST-1368DR,4309,4716,11619,01.183,552
2023-05-02T09:08:48,42.805,6.029,CST-1368DR,4309,4711,11607,01.187,552
2023-05-02T09:11:50,42.805,6.029,CST-1368DR,4309,4716,11621,01.182,551
2023-05-02T09:14:52,42.805,6.029,CST-1368DR,4309,4715,11619,01.183,551
2023-05-02T09:17:53,42.805,6.029,CST-1368DR,4309,4716,11621,01.182,551
2023-05-02T09:20:55,42.805,6.029,CST-1368DR,4309,4717,11623,01.181,552
2023-05-02T09:23:56,42.805,6.029,CST-1368DR,4309,4715,11617,01.183,552
2023-05-02T09:26:58,42.805,6.029,CST-1368DR,4309,4714,11614,01.184,552
2023-05-02T09:30:00,42.805,6.029,CST-1368DR,4309,4714,11616,01.184,551
2023-05-02T09:33:01,42.805,6.029,CST-1368DR,4309,4717,11622,01.182,551
2023-05-02T09:36:03,42.805,6.029,CST-1368DR,4309,4716,11620,01.182,551
2023-05-02T09:39:04,42.805,6.029,CST-1368DR,4309,4716,11619,01.183,551
2023-05-02T09:42:06,42.805,6.029,CST-1368DR,4309,4716,11621,01.182,551
2023-05-02T09:45:07,42.805,6.029,CST-1368DR,4309,4714,11615,01.184,551
2023-05-02T09:48:09,42.805,6.029,CST-1368DR,4309,4715,11617,01.183,551
2023-05-02T09:51:11,42.805,6.029,CST-1368DR,4309,4716,11621,01.182,551
2023-05-02T09:54:12,42.805,6.029,CST-1368DR,4309,4716,11621,01.182,552
2023-05-02T09:57:14,42.805,6.029,CST-1368DR,4309,4716,11620,01.182,551
2023-05-02T10:00:15,42.805,6.029,CST-1368DR,4309,4716,11621,01.182,552
2023-05-02T10:03:17,42.805,6.029,CST-1368DR,4309,4715,11619,01.183,551
2023-05-02T10:06:18,42.805,6.029,CST-1368DR,4309,4715,11617,01.183,552
2023-05-02T10:09:20,42.805,6.029,CST-1368DR,4309,4715,11619,01.183,551
2023-05-02T10:12:22,42.805,6.029,CST-1368DR,4309,4717,11622,01.182,552
2023-05-02T10:15:23,42.805,6.029,CST-1368DR,4309,4714,11616,01.184,551
2023-05-02T10:18:25,42.805,6.029,CST-1368DR,4309,4711,11608,01.186,551
2023-05-02T10:21:26,42.805,6.029,CST-1368DR,4309,4719,11627,01.180,551
2023-05-02T10:24:28,42.805,6.029,CST-1368DR,4309,4711,11608,01.186,552
2023-05-02T10:27:30,42.805,6.029,CST-1368DR,4309,4716,11619,01.183,551
2023-05-02T10:30:33,42.805,6.029,CST-1368DR,4309,4716,11621,01.182,551
2023-05-02T10:33:34,42.805,6.029,CST-1368DR,4309,4715,11619,01.183,552
2023-05-02T10:36:36,42.805,6.029,CST-1368DR,4309,4716,11621,01.182,552
2023-05-02T10:39:37,42.805,6.029,CST-1368DR,4309,4716,11619,01.183,552
2023-05-02T10:42:39,42.805,6.029,CST-1368DR,4309,4715,11617,01.183,552
2023-05-02T10:45:41,42.805,6.029,CST-1368DR,4309,4716,11619,01.183,552
2023-05-02T10:48:42,42.805,6.029,CST-1368DR,4309,4716,11621,01.182,551
2023-05-02T10:51:44,42.805,6.029,CST-1368DR,4309,4717,11622,01.182,551
2023-05-02T10:54:45,42.805,6.029,CST-1368DR,4309,4719,11627,01.180,552
2023-05-02T10:57:47,42.805,6.029,CST-1368DR,4309,4713,11613,01.185,551
2023-05-02T11:00:48,42.805,6.029,CST-1368DR,4309,4718,11625,01.181,551
2023-05-02T11:03:50,42.805,6.029,CST-1368DR,4309,4717,11623,01.181,552
2023-05-02T11:06:52,42.805,6.029,CST-1368DR,4309,4721,11632,01.178,551
2023-05-02T11:09:53,42.805,6.029,CST-1368DR,4309,4716,11621,01.182,551
2023-05-02T11:12:55,42.805,6.029,CST-1368DR,4309,4717,11622,01.182,551
2023-05-02T11:15:56,42.805,6.029,CST-1368DR,4309,4719,11627,01.180,551
2023-05-02T11:18:58,42.805,6.029,CST-1368DR,4309,4717,11622,01.182,551
2023-05-02T11:22:00,42.805,6.029,CST-1368DR,4309,4719,11628,01.180,551
2023-05-02T11:25:01,42.805,6.029,CST-1368DR,4309,4718,11625,01.181,552
2023-05-02T11:28:03,42.805,6.029,CST-1368DR,4309,4719,11627,01.180,551
2023-05-02T11:31:04,42.805,6.029,CST-1368DR,4309,4718,11625,01.181,551
2023-05-02T11:34:06,42.805,6.029,CST-1368DR,4309,4718,11625,01.181,552
2023-05-02T11:37:07,42.805,6.029,CST-1368DR,4309,4707,11599,01.190,552
2023-05-02T11:40:09,42.805,6.029,CST-1368DR,4309,4715,11617,01.183,552
2023-05-02T11:43:11,42.805,6.029,CST-1368DR,4309,4712,11610,01.186,551
2023-05-02T11:46:12,42.805,6.029,CST-1368DR,4309,4711,11609,01.186,551
2023-05-02T11:49:14,42.805,6.029,CST-1368DR,4309,4716,11620,01.182,552
2023-05-02T11:52:15,42.805,6.029,CST-1368DR,4309,4715,11617,01.183,552
2023-05-02T11:55:17,42.805,6.029,CST-1368DR,4309,4715,11617,01.183,551
2023-05-02T11:58:18,42.805,6.029,CST-1368DR,4309,4711,11608,01.186,552
2023-05-02T12:01:20,42.805,6.029,CST-1368DR,4309,4711,11609,01.186,551
2023-05-02T12:04:22,42.805,6.029,CST-1368DR,4309,4713,11612,01.185,552
2023-05-02T12:07:23,42.805,6.029,CST-1368DR,4309,4713,11614,01.184,551
2023-05-02T12:10:25,42.805,6.029,CST-1368DR,4309,4712,11610,01.186,551
2023-05-02T12:13:26,42.805,6.029,CST-1368DR,4309,4715,11617,01.183,552
2023-05-02T12:16:28,42.805,6.029,CST-1368DR,4309,4719,11628,01.180,551
2023-05-02T12:19:30,42.805,6.029,CST-1368DR,4309,4714,11614,01.184,551
2023-05-02T12:22:31,42.805,6.029,CST-1368DR,4309,4716,11621,01.182,552
2023-05-02T12:25:33,42.805,6.029,CST-1368DR,4309,4712,11611,01.185,551
2023-05-02T12:28:34,42.805,6.029,CST-1368DR,4309,4712,11611,01.185,552
2023-05-02T12:31:36,42.805,6.029,CST-1368DR,4309,4715,11617,01.183,551
2023-05-02T12:34:37,42.805,6.029,CST-1368DR,4309,4709,11602,01.188,552
2023-05-02T12:37:39,42.805,6.029,CST-1368DR,4309,4709,11604,01.188,552
2023-05-02T12:40:41,42.805,6.029,CST-1368DR,4309,4710,11605,01.187,552
2023-05-02T12:43:42,42.805,6.029,CST-1368DR,4309,4713,11612,01.185,551
2023-05-02T12:46:44,42.805,6.029,CST-1368DR,4309,4715,11619,01.183,551
2023-05-02T12:49:45,42.805,6.029,CST-1368DR,4309,4713,11613,01.185,551
2023-05-02T12:52:47,42.805,6.029,CST-1368DR,4309,4713,11613,01.185,551
2023-05-02T12:55:48,42.805,6.029,CST-1368DR,4309,4715,11618,01.183,552
2023-05-02T12:58:50,42.805,6.029,CST-1368DR,4309,4714,11615,01.184,552
2023-05-02T13:01:52,42.805,6.029,CST-1368DR,4309,4714,11615,01.184,552
2023-05-02T13:04:53,42.805,6.029,CST-1368DR,4309,4715,11617,01.183,552
2023-05-02T13:07:55,42.805,6.029,CST-1368DR,4309,4715,11618,01.183,552
2023-05-02T13:10:56,42.805,6.029,CST-1368DR,4309,4713,11613,01.185,551
2023-05-02T13:13:58,42.805,6.029,CST-1368DR,4309,4710,11605,01.187,552
2023-05-02T13:17:00,42.805,6.029,CST-1368DR,4309,4714,11614,01.184,551
2023-05-02T13:20:01,42.805,6.029,CST-1368DR,4309,4713,11613,01.185,552
2023-05-02T13:23:03,42.805,6.029,CST-1368DR,4309,4715,11618,01.183,552
2023-05-02T13:26:04,42.805,6.029,CST-1368DR,4309,4710,11606,01.187,551
2023-05-02T13:29:06,42.805,6.029,CST-1368DR,4309,4713,11613,01.185,552
2023-05-02T13:32:07,42.805,6.029,CST-1368DR,4309,4714,11614,01.184,551
2023-05-02T13:35:09,42.805,6.029,CST-1368DR,4309,4711,11609,01.186,552
2023-05-02T13:38:11,42.805,6.029,CST-1368DR,4309,4710,11605,01.187,551
2023-05-02T13:41:12,42.805,6.029,CST-1368DR,4309,4703,11587,01.194,552
2023-05-02T13:44:14,42.805,6.029,CST-1368DR,4309,4712,11609,01.186,551
2023-05-02T13:47:15,42.805,6.029,CST-1368DR,4309,4713,11612,01.185,551
2023-05-02T13:50:17,42.805,6.029,CST-1368DR,4309,4712,11611,01.185,551
2023-05-02T13:53:19,42.805,6.029,CST-1368DR,4309,4714,11615,01.184,552
2023-05-02T13:56:20,42.805,6.029,CST-1368DR,4309,4712,11611,01.185,552
2023-05-02T13:59:22,42.805,6.029,CST-1368DR,4309,4712,11610,01.186,552
2023-05-02T14:02:23,42.805,6.029,CST-1368DR,4309,4716,11619,01.183,551
2023-05-02T14:05:25,42.805,6.029,CST-1368DR,4309,4711,11608,01.186,552
2023-05-02T14:08:26,42.805,6.029,CST-1368DR,4309,4709,11603,01.188,552
2023-05-02T14:11:28,42.805,6.029,CST-1368DR,4309,4714,11615,01.184,551
2023-05-02T14:14:30,42.805,6.029,CST-1368DR,4309,4715,11619,01.183,552
2023-05-02T14:17:31,42.805,6.029,CST-1368DR,4309,4717,11622,01.182,552
2023-05-02T14:20:33,42.805,6.029,CST-1368DR,4309,4711,11608,01.186,552
2023-05-02T14:23:34,42.805,6.029,CST-1368DR,4309,4714,11615,01.184,552
2023-05-02T14:26:36,42.805,6.029,CST-1368DR,4309,4714,11616,01.184,551
2023-05-02T14:29:37,42.805,6.029,CST-1368DR,4309,4713,11613,01.185,551
2023-05-02T14:32:41,42.805,6.029,CST-1368DR,4309,4712,11609,01.186,551
2023-05-02T14:35:42,42.805,6.029,CST-1368DR,4309,4714,11614,01.184,552
2023-05-02T14:38:44,42.805,6.029,CST-1368DR,4309,4715,11617,01.183,551
2023-05-02T14:41:45,42.805,6.029,CST-1368DR,4309,4711,11609,01.186,551
2023-05-02T14:44:47,42.805,6.029,CST-1368DR,4309,4715,11617,01.183,551
2023-05-02T14:47:48,42.805,6.029,CST-1368DR,4309,4716,11621,01.182,552
2023-05-02T14:50:50,42.805,6.029,CST-1368DR,4309,4714,11614,01.184,552
2023-05-02T14:53:52,42.805,6.029,CST-1368DR,4309,4715,11617,01.183,551
2023-05-02T14:56:53,42.805,6.029,CST-1368DR,4309,4714,11616,01.184,552
2023-05-02T14:59:55,42.805,6.029,CST-1368DR,4309,4711,11609,01.186,552
2023-05-02T15:02:56,42.805,6.029,CST-1368DR,4309,4715,11617,01.183,551
2023-05-02T15:05:58,42.805,6.029,CST-1368DR,4309,4725,11643,01.174,552
2023-05-02T15:09:00,42.805,6.029,CST-1368DR,4309,4715,11619,01.183,552
2023-05-02T15:12:01,42.805,6.029,CST-1368DR,4309,4715,11617,01.183,552
2023-05-02T15:15:03,42.805,6.029,CST-1368DR,4309,4717,11624,01.181,552
2023-05-02T15:18:04,42.805,6.029,CST-1368DR,4309,4716,11621,01.182,552
2023-05-02T15:21:06,42.805,6.029,CST-1368DR,4309,4716,11619,01.183,551
2023-05-02T15:24:07,42.805,6.029,CST-1368DR,4309,4716,11621,01.182,552
2023-05-02T15:27:09,42.805,6.029,CST-1368DR,4309,4717,11622,01.182,552
2023-05-02T15:30:11,42.805,6.029,CST-1368DR,4309,4716,11621,01.182,552
2023-05-02T15:33:12,42.805,6.029,CST-1368DR,4309,4717,11622,01.182,552
2023-05-02T15:36:14,42.805,6.029,CST-1368DR,4309,4718,11625,01.181,551
2023-05-02T15:39:15,42.805,6.029,CST-1368DR,4309,4714,11616,01.184,552
2023-05-02T15:42:17,42.805,6.029,CST-1368DR,4309,4716,11621,01.182,551
2023-05-02T15:45:18,42.805,6.029,CST-1368DR,4309,4715,11618,01.183,552
2023-05-02T15:48:20,42.805,6.029,CST-1368DR,4309,4715,11619,01.183,551
2023-05-02T15:51:22,42.805,6.029,CST-1368DR,4309,4714,11614,01.184,552
2023-05-02T15:54:23,42.805,6.029,CST-1368DR,4309,4711,11609,01.186,551
2023-05-02T15:57:25,42.805,6.029,CST-1368DR,4309,4715,11617,01.183,552
2023-05-02T16:00:26,42.805,6.029,CST-1368DR,4309,4709,11604,01.188,552
2023-05-02T16:03:28,42.805,6.029,CST-1368DR,4309,4713,11612,01.185,552
2023-05-02T16:06:30,42.805,6.029,CST-1368DR,4309,4714,11616,01.184,551
2023-05-02T16:09:31,42.805,6.029,CST-1368DR,4309,4709,11603,01.188,551
2023-05-02T16:12:33,42.805,6.029,CST-1368DR,4309,4716,11619,01.183,552
2023-05-02T16:15:34,42.805,6.029,CST-1368DR,4309,4715,11617,01.183,552
2023-05-02T16:18:36,42.805,6.029,CST-1368DR,4309,4713,11614,01.184,552
2023-05-02T16:21:37,42.805,6.029,CST-1368DR,4309,4710,11606,01.187,552
2023-05-02T16:24:39,42.805,6.029,CST-1368DR,4309,4714,11616,01.184,551
2023-05-02T16:27:41,42.805,6.029,CST-1368DR,4309,4713,11613,01.185,551
2023-05-02T16:30:43,42.805,6.029,CST-1368DR,4309,4715,11619,01.183,552
2023-05-02T16:33:45,42.805,6.029,CST-1368DR,4309,4716,11621,01.182,552
2023-05-02T16:36:46,42.805,6.029,CST-1368DR,4309,4715,11617,01.183,551